Change the Weather History Date:

Thursday, March 27, 2014

  Actual Average (KDEQ) Record (KDEQ)
Temperature  
Mean Temperature 58 °F 56 °F  
Max Temperature 66 °F 69 °F 85 °F (1972)
Min Temperature 51 °F 43 °F 17 °F (1955)
Degree Days  
Heating Degree Days 6 10  
Month to date heating degree days 340  
Since 1 July heating degree days 2831  
Cooling Degree Days 0 0  
Month to date cooling degree days 0  
Year to date cooling degree days 2  
Growing Degree Days 8 (Base 50)    
Moisture  
Dew Point 52 °F    
Average Humidity 82    
Maximum Humidity 94    
Minimum Humidity 54    
Precipitation  
Precipitation 0.05 in 0.18 in 1.94 in (1984)
Month to date precipitation 3.87  
Year to date precipitation 10.87  
Sea Level Pressure  
Sea Level Pressure 29.84 in    
Wind  
Wind Speed 11 mph (SSE)    
Max Wind Speed 15 mph    
Max Gust Speed 20 mph    
Visibility 9 miles    
Events      
T = Trace of Precipitation, MM = Missing Value Source: NWS Daily Summary

Daily Weather History Graph

Daily Weather History Graph

Search for Another Location

Airport or City:

Trip Planner

Search our weather history database for the weather conditions in past years. The results will help you decide how hot, cold, wet, or windy it might be!

Date:

Astronomy

Mar. 27, 2014 Rise Set
Actual Time 7:13 AM CDT 7:36 PM CDT
Civil Twilight 6:48 AM CDT 8:01 PM CDT
Nautical Twilight 6:19 AM CDT 8:30 PM CDT
Astronomical Twilight 5:49 AM CDT 9:00 PM CDT
Moon 4:56 AM CDT (3/27) 4:32 PM CDT (3/27)
Length of Visible Light 13h 12m
Length of Day
12h 22m
Waning Crescent, 13% of the Moon is Illuminated
Mar 27
Waning Crescent
Mar 30
New
Apr 7
First Quarter
Apr 15
Full
Apr 22
Last Quarter

Hourly Weather History & Observations

Time (CDT) Temp. Dew Point Humidity Pressure Visibility Wind Dir Wind Speed Gust Speed Precip Events Conditions
12:02 AM 51.8 °F 35.6 °F 54% 29.98 in 10.0 mi SSE 13.8 mph 18.4 mph N/A   Mostly Cloudy
12:21 AM 51.8 °F 37.4 °F 58% 29.98 in 10.0 mi SSE 11.5 mph - N/A   Mostly Cloudy
12:40 AM 51.8 °F 37.4 °F 58% 29.98 in 10.0 mi SSE 11.5 mph 16.1 mph N/A   Mostly Cloudy
1:00 AM 51.8 °F 37.4 °F 58% 29.97 in 10.0 mi SSE 11.5 mph 17.3 mph N/A   Scattered Clouds
1:20 AM 51.8 °F 37.4 °F 58% 29.97 in 10.0 mi SSE 11.5 mph - N/A   Scattered Clouds
1:40 AM 51.8 °F 37.4 °F 58% 29.96 in 10.0 mi SSE 9.2 mph 16.1 mph N/A   Mostly Cloudy
2:00 AM 51.8 °F 39.2 °F 62% 29.96 in 10.0 mi SSE 9.2 mph - N/A   Mostly Cloudy
2:20 AM 51.8 °F 39.2 °F 62% 29.95 in 10.0 mi SSE 9.2 mph - N/A   Overcast
2:40 AM 51.8 °F 39.2 °F 62% 29.94 in 10.0 mi SE 9.2 mph - N/A   Overcast
3:00 AM 51.8 °F 39.2 °F 62% 29.94 in 10.0 mi SE 11.5 mph - N/A   Overcast
3:20 AM 51.8 °F 41.0 °F 67% 29.93 in 10.0 mi SSE 11.5 mph - N/A   Overcast
3:40 AM 51.8 °F 42.8 °F 71% 29.92 in 10.0 mi SSE 10.4 mph 18.4 mph N/A   Overcast
4:00 AM 51.8 °F 42.8 °F 71% 29.91 in 10.0 mi SSE 10.4 mph - N/A   Overcast
4:20 AM 51.8 °F 44.6 °F 76% 29.90 in 10.0 mi SSE 10.4 mph 17.3 mph N/A   Overcast
4:40 AM 51.8 °F 44.6 °F 76% 29.90 in 10.0 mi SSE 11.5 mph 17.3 mph N/A   Overcast
5:00 AM 51.8 °F 44.6 °F 76% 29.90 in 10.0 mi SSE 9.2 mph - N/A   Overcast
5:20 AM 51.8 °F 44.6 °F 76% 29.89 in 10.0 mi SE 8.1 mph - N/A   Overcast
5:40 AM 51.8 °F 46.4 °F 82% 29.89 in 10.0 mi SE 8.1 mph - N/A   Overcast
6:00 AM 51.8 °F 46.4 °F 82% 29.88 in 10.0 mi SE 8.1 mph - N/A   Overcast
6:20 AM 53.6 °F 46.4 °F 77% 29.89 in 10.0 mi SE 10.4 mph - N/A   Overcast
6:40 AM 53.6 °F 46.4 °F 77% 29.89 in 10.0 mi SE 10.4 mph - N/A   Overcast
7:00 AM 53.6 °F 46.4 °F 77% 29.88 in 10.0 mi SE 9.2 mph - N/A   Overcast
7:40 AM 53.6 °F 48.2 °F 82% 29.88 in 10.0 mi SE 9.2 mph 16.1 mph N/A   Overcast
8:00 AM 53.6 °F 48.2 °F 82% 29.88 in 10.0 mi SE 10.4 mph - N/A   Overcast
8:20 AM 53.6 °F 48.2 °F 82% 29.89 in 10.0 mi ESE 10.4 mph 17.3 mph N/A   Overcast
8:40 AM 53.6 °F 48.2 °F 82% 29.88 in 10.0 mi ESE 10.4 mph - N/A   Overcast
9:00 AM 53.6 °F 48.2 °F 82% 29.88 in 10.0 mi SE 10.4 mph - N/A   Overcast
9:22 AM 53.6 °F 48.2 °F 82% 29.87 in 10.0 mi SE 12.7 mph - N/A   Overcast
9:40 AM 53.6 °F 48.2 °F 82% 29.86 in 7.0 mi SE 11.5 mph 17.3 mph N/A   Overcast
10:00 AM 53.6 °F 50.0 °F 88% 29.85 in 7.0 mi SE 11.5 mph - N/A   Overcast
10:20 AM 53.6 °F 51.8 °F 94% 29.85 in 7.0 mi SSE 11.5 mph 18.4 mph N/A   Overcast
10:40 AM 55.4 °F 51.8 °F 88% 29.85 in 5.0 mi SSE 9.2 mph - N/A   Overcast
11:03 AM 55.4 °F 51.8 °F 88% 29.85 in 4.0 mi SSE 10.4 mph - N/A   Overcast
11:20 AM 55.4 °F 53.6 °F 94% 29.85 in 4.0 mi SSE 9.2 mph - 0.05 in   Overcast
11:40 AM 55.4 °F 53.6 °F 94% 29.84 in 3.0 mi South 12.7 mph 16.1 mph 0.05 in   Overcast
12:00 PM 57.2 °F 55.4 °F 94% 29.83 in 3.0 mi SSE 11.5 mph - N/A   Overcast
12:22 PM 57.2 °F 55.4 °F 94% 29.82 in 3.0 mi SSE 10.4 mph - N/A   Overcast
12:41 PM 57.2 °F 55.4 °F 94% 29.81 in 3.0 mi SSE 12.7 mph - N/A   Overcast
1:20 PM 57.2 °F 55.4 °F 94% 29.80 in 3.0 mi South 10.4 mph - N/A   Overcast
1:42 PM 59.0 °F 57.2 °F 94% 29.79 in 3.0 mi South 10.4 mph - N/A   Overcast
2:22 PM 60.8 °F 57.2 °F 88% 29.79 in 4.0 mi South 8.1 mph - N/A   Overcast
3:01 PM 60.8 °F 59.0 °F 94% 29.77 in 5.0 mi SSW 10.4 mph - N/A   Overcast
3:21 PM 62.6 °F 60.8 °F 94% 29.75 in 7.0 mi South 11.5 mph 16.1 mph N/A   Overcast
3:41 PM 62.6 °F 60.8 °F 94% 29.75 in 5.0 mi SSW 9.2 mph - N/A   Overcast
4:02 PM 62.6 °F 60.8 °F 94% 29.76 in 7.0 mi SSW 9.2 mph - N/A   Overcast
4:21 PM 64.4 °F 60.8 °F 88% 29.75 in 7.0 mi SSW 13.8 mph 18.4 mph N/A   Overcast
4:42 PM 64.4 °F 62.6 °F 94% 29.74 in 10.0 mi South 12.7 mph - N/A   Overcast
5:01 PM 64.4 °F 62.6 °F 94% 29.74 in 10.0 mi South 13.8 mph - N/A   Overcast
5:21 PM 66.2 °F 62.6 °F 88% 29.73 in 10.0 mi South 15.0 mph - N/A   Overcast
5:41 PM 66.2 °F 62.6 °F 88% 29.73 in 10.0 mi South 13.8 mph - N/A   Overcast
6:02 PM 66.2 °F 62.6 °F 88% 29.72 in 10.0 mi South 11.5 mph - N/A   Overcast
6:21 PM 66.2 °F 62.6 °F 88% 29.72 in 10.0 mi South 15.0 mph - N/A   Overcast
6:41 PM 66.2 °F 62.6 °F 88% 29.72 in 10.0 mi South 15.0 mph 19.6 mph N/A   Overcast
7:01 PM 66.2 °F 60.8 °F 83% 29.72 in 10.0 mi South 15.0 mph - N/A   Scattered Clouds
7:21 PM 66.2 °F 60.8 °F 83% 29.72 in 10.0 mi South 12.7 mph - N/A   Scattered Clouds
7:41 PM 66.2 °F 60.8 °F 83% 29.73 in 10.0 mi South 9.2 mph - N/A   Mostly Cloudy
8:01 PM 66.2 °F 60.8 °F 83% 29.74 in 10.0 mi South 5.8 mph - N/A   Overcast
8:21 PM 66.2 °F 60.8 °F 83% 29.74 in 10.0 mi SSE 5.8 mph - N/A   Overcast
8:41 PM 66.2 °F 60.8 °F 83% 29.75 in 10.0 mi South 6.9 mph - N/A   Overcast
9:01 PM 66.2 °F 60.8 °F 83% 29.77 in 10.0 mi South 3.5 mph - N/A   Overcast
9:21 PM 66.2 °F 60.8 °F 83% 29.78 in 10.0 mi South 5.8 mph - N/A   Overcast
9:41 PM 64.4 °F 60.8 °F 88% 29.78 in 10.0 mi South 5.8 mph - N/A   Overcast
10:01 PM 64.4 °F 60.8 °F 88% 29.78 in 10.0 mi South 5.8 mph - N/A   Mostly Cloudy
10:21 PM 62.6 °F 60.8 °F 94% 29.79 in 10.0 mi SSE 4.6 mph - N/A   Scattered Clouds
10:42 PM 62.6 °F 60.8 °F 94% 29.79 in 10.0 mi SE 5.8 mph - N/A   Scattered Clouds
11:01 PM 62.6 °F 59.0 °F 88% 29.79 in 10.0 mi SE 6.9 mph - N/A   Clear
11:21 PM 62.6 °F 60.8 °F 94% 29.79 in 10.0 mi SSE 8.1 mph - N/A   Clear
11:41 PM 62.6 °F 60.8 °F 94% 29.78 in 10.0 mi SE 8.1 mph - N/A   Clear